TimeCDT,TemperatureF,Dew PointF,Humidity,Sea Level PressureIn,VisibilityMPH,Wind Direction,Wind SpeedMPH,Gust SpeedMPH,PrecipitationIn,Events,Conditions,WindDirDegrees,DateUTC
12:15 AM,51.8,33.8,50,29.84,10.0,South,6.9,-,N/A,,Clear,190,2012-10-09 05:15:00
12:35 AM,51.8,35.6,54,29.83,10.0,South,6.9,-,N/A,,Clear,190,2012-10-09 05:35:00
12:55 AM,51.8,35.6,54,29.84,10.0,SW,4.6,-,N/A,,Clear,230,2012-10-09 05:55:00
1:15 AM,48.2,33.8,58,29.84,10.0,Calm,Calm,-,N/A,,Clear,0,2012-10-09 06:15:00
1:55 AM,44.6,32.0,61,29.85,10.0,Calm,Calm,-,N/A,,Clear,0,2012-10-09 06:55:00
2:15 AM,42.8,32.0,66,29.85,10.0,Calm,Calm,-,N/A,,Clear,0,2012-10-09 07:15:00
2:55 AM,39.2,32.0,75,29.83,10.0,Calm,Calm,-,N/A,,Clear,0,2012-10-09 07:55:00
3:15 AM,39.2,33.8,81,29.83,10.0,Calm,Calm,-,N/A,,Clear,0,2012-10-09 08:15:00
3:35 AM,42.8,35.6,76,29.81,10.0,SSE,3.5,-,N/A,,Clear,160,2012-10-09 08:35:00
3:55 AM,48.2,41.0,76,29.81,10.0,South,8.1,-,N/A,,Clear,190,2012-10-09 08:55:00
4:15 AM,48.2,39.2,71,29.80,10.0,South,6.9,-,N/A,,Clear,180,2012-10-09 09:15:00
4:35 AM,50.0,39.2,66,29.81,10.0,South,9.2,-,N/A,,Clear,190,2012-10-09 09:35:00
4:55 AM,48.2,37.4,66,29.81,10.0,SSW,4.6,-,N/A,,Clear,210,2012-10-09 09:55:00
5:15 AM,48.2,37.4,66,29.81,10.0,South,3.5,-,N/A,,Clear,180,2012-10-09 10:15:00
5:35 AM,46.4,35.6,66,29.81,10.0,Calm,Calm,-,N/A,,Clear,0,2012-10-09 10:35:00
5:55 AM,46.4,37.4,71,29.83,10.0,Calm,Calm,-,N/A,,Clear,0,2012-10-09 10:55:00
6:15 AM,44.6,35.6,71,29.83,10.0,Calm,Calm,-,N/A,,Clear,0,2012-10-09 11:15:00
6:35 AM,42.8,35.6,76,29.82,10.0,Calm,Calm,-,N/A,,Clear,0,2012-10-09 11:35:00
6:55 AM,44.6,37.4,76,29.83,10.0,Calm,Calm,-,N/A,,Clear,0,2012-10-09 11:55:00
7:15 AM,46.4,37.4,71,29.84,10.0,Calm,Calm,-,N/A,,Clear,0,2012-10-09 12:15:00
7:35 AM,46.4,37.4,71,29.85,10.0,Calm,Calm,-,N/A,,Clear,0,2012-10-09 12:35:00
7:55 AM,46.4,37.4,71,29.86,10.0,WSW,5.8,-,N/A,,Clear,240,2012-10-09 12:55:00
8:15 AM,48.2,39.2,71,29.87,10.0,WSW,9.2,-,N/A,,Clear,250,2012-10-09 13:15:00
8:35 AM,48.2,39.2,71,29.87,10.0,WSW,6.9,-,N/A,,Clear,250,2012-10-09 13:35:00
8:55 AM,51.8,41.0,67,29.87,10.0,WNW,3.5,-,N/A,,Clear,300,2012-10-09 13:55:00
9:15 AM,51.8,41.0,67,29.87,10.0,NW,4.6,-,N/A,,Clear,320,2012-10-09 14:15:00
9:35 AM,51.8,41.0,67,29.89,10.0,NW,6.9,-,N/A,,Clear,320,2012-10-09 14:35:00
9:55 AM,53.6,44.6,72,29.89,10.0,NNW,12.7,18.4,N/A,,Clear,340,2012-10-09 14:55:00
10:15 AM,53.6,44.6,72,29.90,10.0,NNW,13.8,17.3,N/A,,Clear,330,2012-10-09 15:15:00
10:35 AM,53.6,44.6,72,29.90,10.0,NNW,13.8,25.3,N/A,,Clear,330,2012-10-09 15:35:00
10:55 AM,53.6,44.6,72,29.91,10.0,NNW,16.1,28.8,N/A,,Clear,330,2012-10-09 15:55:00
11:15 AM,53.6,42.8,67,29.92,10.0,NNW,17.3,26.5,N/A,,Clear,330,2012-10-09 16:15:00
11:35 AM,53.6,42.8,67,29.93,10.0,NNW,18.4,26.5,N/A,,Scattered Clouds,330,2012-10-09 16:35:00
11:55 AM,51.8,42.8,71,29.93,10.0,NNW,13.8,26.5,N/A,,Scattered Clouds,340,2012-10-09 16:55:00
12:15 PM,51.8,42.8,71,29.94,10.0,NNW,16.1,24.2,N/A,,Scattered Clouds,330,2012-10-09 17:15:00
12:35 PM,51.8,41.0,67,29.95,10.0,NW,17.3,21.9,N/A,,Clear,320,2012-10-09 17:35:00
12:55 PM,51.8,39.2,62,29.96,10.0,NNW,12.7,20.7,N/A,,Scattered Clouds,330,2012-10-09 17:55:00
1:15 PM,50.0,37.4,62,29.95,10.0,NW,11.5,19.6,N/A,,Scattered Clouds,320,2012-10-09 18:15:00
1:35 PM,50.0,39.2,66,29.95,10.0,NNW,11.5,20.7,N/A,,Scattered Clouds,330,2012-10-09 18:35:00
1:55 PM,50.0,39.2,66,29.95,10.0,NW,10.4,16.1,N/A,,Clear,310,2012-10-09 18:55:00
2:15 PM,51.8,39.2,62,29.95,10.0,NW,9.2,-,N/A,,Clear,320,2012-10-09 19:15:00
2:35 PM,51.8,37.4,58,29.95,10.0,NW,10.4,-,N/A,,Clear,320,2012-10-09 19:35:00
2:55 PM,51.8,32.0,47,29.96,10.0,NW,11.5,21.9,N/A,,Clear,320,2012-10-09 19:55:00
3:15 PM,50.0,28.4,43,29.97,10.0,NW,12.7,18.4,N/A,,Clear,310,2012-10-09 20:15:00
3:35 PM,50.0,24.8,37,29.97,10.0,NW,12.7,23.0,N/A,,Clear,320,2012-10-09 20:35:00
3:55 PM,50.0,26.6,40,29.98,10.0,NW,11.5,18.4,N/A,,Scattered Clouds,310,2012-10-09 20:55:00
4:15 PM,50.0,26.6,40,29.98,10.0,WNW,9.2,-,N/A,,Mostly Cloudy,300,2012-10-09 21:15:00
4:35 PM,50.0,26.6,40,29.98,10.0,NW,9.2,-,N/A,,Scattered Clouds,310,2012-10-09 21:35:00
4:55 PM,51.8,26.6,38,29.98,10.0,WNW,9.2,-,N/A,,Clear,300,2012-10-09 21:55:00
5:15 PM,51.8,26.6,38,29.98,10.0,WNW,4.6,-,N/A,,Clear,290,2012-10-09 22:15:00
5:35 PM,51.8,26.6,38,29.98,10.0,WNW,6.9,-,N/A,,Clear,290,2012-10-09 22:35:00
5:55 PM,51.8,26.6,38,29.98,10.0,WNW,6.9,-,N/A,,Clear,290,2012-10-09 22:55:00
6:15 PM,51.8,24.8,35,29.98,10.0,NW,8.1,-,N/A,,Clear,320,2012-10-09 23:15:00
6:35 PM,51.8,24.8,35,29.99,10.0,NW,9.2,18.4,N/A,,Clear,310,2012-10-09 23:35:00
6:55 PM,50.0,24.8,37,30.01,10.0,NNW,12.7,19.6,N/A,,Clear,330,2012-10-09 23:55:00
7:15 PM,48.2,26.6,43,30.02,10.0,NNW,9.2,-,N/A,,Clear,330,2012-10-10 00:15:00
7:35 PM,46.4,26.6,46,30.03,10.0,NNW,10.4,-,N/A,,Clear,330,2012-10-10 00:35:00
7:55 PM,44.6,26.6,49,30.04,10.0,NNW,9.2,-,N/A,,Clear,330,2012-10-10 00:55:00
8:15 PM,44.6,28.4,53,30.06,10.0,NNW,13.8,-,N/A,,Clear,340,2012-10-10 01:15:00
8:35 PM,42.8,28.4,57,30.07,10.0,NNW,8.1,-,N/A,,Clear,340,2012-10-10 01:35:00
8:55 PM,42.8,28.4,57,30.08,10.0,NNW,4.6,-,N/A,,Clear,330,2012-10-10 01:55:00
9:15 PM,39.2,28.4,65,30.08,10.0,NW,3.5,-,N/A,,Clear,320,2012-10-10 02:15:00
9:35 PM,39.2,28.4,65,30.09,10.0,WNW,3.5,-,N/A,,Clear,300,2012-10-10 02:35:00
9:55 PM,39.2,28.4,65,30.09,10.0,Calm,Calm,-,N/A,,Clear,0,2012-10-10 02:55:00
10:15 PM,35.6,26.6,70,30.10,10.0,Calm,Calm,-,N/A,,Clear,0,2012-10-10 03:15:00
10:35 PM,35.6,26.6,70,30.11,10.0,Calm,Calm,-,N/A,,Clear,0,2012-10-10 03:35:00
10:55 PM,33.8,24.8,70,30.11,10.0,Calm,Calm,-,N/A,,Clear,0,2012-10-10 03:55:00
11:15 PM,30.2,24.8,80,30.11,10.0,Calm,Calm,-,N/A,,Clear,0,2012-10-10 04:15:00
11:35 PM,30.2,24.8,80,30.12,10.0,Calm,Calm,-,N/A,,Clear,0,2012-10-10 04:35:00
11:55 PM,28.4,21.2,74,30.12,10.0,Calm,Calm,-,N/A,,Clear,0,2012-10-10 04:55:00